Data supplied by UK-AIR on 5/4/2008
All Data GMT hour ending 
Status: R =Ratified P=Provisional,P*=As supplied
,,Scunthorpe Town,,,,,,,,,,,,,,,,,,,,,,,
Date,time,"PM10 particulate matter (Hourly measured)",status,unit,"Sulphur dioxide",status,unit
 
01-01-2005,01:00,26,R,ugm-3 (GRAV EQ),,,
01-01-2005,02:00,14,R,ugm-3 (GRAV EQ),5,R,ugm-3
01-01-2005,03:00,10,R,ugm-3 (GRAV EQ),3,R,ugm-3
01-01-2005,04:00,9,R,ugm-3 (GRAV EQ),5,R,ugm-3
01-01-2005,05:00,10,R,ugm-3 (GRAV EQ),3,R,ugm-3
01-01-2005,06:00,12,R,ugm-3 (GRAV EQ),3,R,ugm-3
01-01-2005,07:00,10,R,ugm-3 (GRAV EQ),5,R,ugm-3
01-01-2005,08:00,7,R,ugm-3 (GRAV EQ),3,R,ugm-3
01-01-2005,09:00,5,R,ugm-3 (GRAV EQ),3,R,ugm-3
01-01-2005,10:00,8,R,ugm-3 (GRAV EQ),3,R,ugm-3
01-01-2005,11:00,9,R,ugm-3 (GRAV EQ),5,R,ugm-3
01-01-2005,12:00,10,R,ugm-3 (GRAV EQ),8,R,ugm-3
01-01-2005,13:00,7,R,ugm-3 (GRAV EQ),16,R,ugm-3
01-01-2005,14:00,0,R,ugm-3 (GRAV EQ),8,R,ugm-3
01-01-2005,15:00,3,R,ugm-3 (GRAV EQ),35,R,ugm-3
01-01-2005,16:00,8,R,ugm-3 (GRAV EQ),40,R,ugm-3
01-01-2005,17:00,10,R,ugm-3 (GRAV EQ),32,R,ugm-3
01-01-2005,18:00,-3,R,ugm-3 (GRAV EQ),8,R,ugm-3
01-01-2005,19:00,9,R,ugm-3 (GRAV EQ),8,R,ugm-3
01-01-2005,20:00,4,R,ugm-3 (GRAV EQ),3,R,ugm-3
01-01-2005,21:00,1,R,ugm-3 (GRAV EQ),5,R,ugm-3
01-01-2005,22:00,4,R,ugm-3 (GRAV EQ),3,R,ugm-3
01-01-2005,23:00,7,R,ugm-3 (GRAV EQ),3,R,ugm-3
01-01-2005,24:00,5,R,ugm-3 (GRAV EQ),3,R,ugm-3
02-01-2005,01:00,8,R,ugm-3 (GRAV EQ),3,R,ugm-3
02-01-2005,02:00,14,R,ugm-3 (GRAV EQ),5,R,ugm-3
02-01-2005,03:00,13,R,ugm-3 (GRAV EQ),3,R,ugm-3
02-01-2005,04:00,13,R,ugm-3 (GRAV EQ),0,R,ugm-3
02-01-2005,05:00,14,R,ugm-3 (GRAV EQ),0,R,ugm-3
02-01-2005,06:00,13,R,ugm-3 (GRAV EQ),0,R,ugm-3
02-01-2005,07:00,16,R,ugm-3 (GRAV EQ),0,R,ugm-3
02-01-2005,08:00,18,R,ugm-3 (GRAV EQ),0,R,ugm-3
02-01-2005,09:00,20,R,ugm-3 (GRAV EQ),0,R,ugm-3
02-01-2005,10:00,22,R,ugm-3 (GRAV EQ),3,R,ugm-3
02-01-2005,11:00,23,R,ugm-3 (GRAV EQ),0,R,ugm-3
02-01-2005,12:00,17,R,ugm-3 (GRAV EQ),0,R,ugm-3
02-01-2005,13:00,20,R,ugm-3 (GRAV EQ),0,R,ugm-3
02-01-2005,14:00,26,R,ugm-3 (GRAV EQ),3,R,ugm-3
02-01-2005,15:00,16,R,ugm-3 (GRAV EQ),3,R,ugm-3
02-01-2005,16:00,20,R,ugm-3 (GRAV EQ),3,R,ugm-3
02-01-2005,17:00,17,R,ugm-3 (GRAV EQ),3,R,ugm-3
02-01-2005,18:00,18,R,ugm-3 (GRAV EQ),0,R,ugm-3
02-01-2005,19:00,20,R,ugm-3 (GRAV EQ),5,R,ugm-3
02-01-2005,20:00,18,R,ugm-3 (GRAV EQ),5,R,ugm-3
02-01-2005,21:00,18,R,ugm-3 (GRAV EQ),3,R,ugm-3
02-01-2005,22:00,22,R,ugm-3 (GRAV EQ),3,R,ugm-3
02-01-2005,23:00,25,R,ugm-3 (GRAV EQ),3,R,ugm-3
02-01-2005,24:00,27,R,ugm-3 (GRAV EQ),3,R,ugm-3
03-01-2005,01:00,23,R,ugm-3 (GRAV EQ),0,R,ugm-3
03-01-2005,02:00,20,R,ugm-3 (GRAV EQ),0,R,ugm-3
03-01-2005,03:00,21,R,ugm-3 (GRAV EQ),0,R,ugm-3
03-01-2005,04:00,20,R,ugm-3 (GRAV EQ),0,R,ugm-3
03-01-2005,05:00,20,R,ugm-3 (GRAV EQ),0,R,ugm-3
03-01-2005,06:00,23,R,ugm-3 (GRAV EQ),3,R,ugm-3
03-01-2005,07:00,21,R,ugm-3 (GRAV EQ),0,R,ugm-3
03-01-2005,08:00,21,R,ugm-3 (GRAV EQ),0,R,ugm-3
03-01-2005,09:00,21,R,ugm-3 (GRAV EQ),0,R,ugm-3
03-01-2005,10:00,22,R,ugm-3 (GRAV EQ),0,R,ugm-3
03-01-2005,11:00,18,R,ugm-3 (GRAV EQ),3,R,ugm-3
03-01-2005,12:00,16,R,ugm-3 (GRAV EQ),3,R,ugm-3
03-01-2005,13:00,10,R,ugm-3 (GRAV EQ),5,R,ugm-3
03-01-2005,14:00,8,R,ugm-3 (GRAV EQ),3,R,ugm-3
03-01-2005,15:00,8,R,ugm-3 (GRAV EQ),0,R,ugm-3
03-01-2005,16:00,8,R,ugm-3 (GRAV EQ),0,R,ugm-3
03-01-2005,17:00,12,R,ugm-3 (GRAV EQ),0,R,ugm-3
03-01-2005,18:00,17,R,ugm-3 (GRAV EQ),3,R,ugm-3
03-01-2005,19:00,18,R,ugm-3 (GRAV EQ),5,R,ugm-3
03-01-2005,20:00,20,R,ugm-3 (GRAV EQ),5,R,ugm-3
03-01-2005,21:00,13,R,ugm-3 (GRAV EQ),5,R,ugm-3
03-01-2005,22:00,14,R,ugm-3 (GRAV EQ),0,R,ugm-3
03-01-2005,23:00,12,R,ugm-3 (GRAV EQ),3,R,ugm-3
03-01-2005,24:00,7,R,ugm-3 (GRAV EQ),3,R,ugm-3
04-01-2005,01:00,9,R,ugm-3 (GRAV EQ),3,R,ugm-3
04-01-2005,02:00,17,R,ugm-3 (GRAV EQ),0,R,ugm-3
04-01-2005,03:00,10,R,ugm-3 (GRAV EQ),0,R,ugm-3
04-01-2005,04:00,9,R,ugm-3 (GRAV EQ),0,R,ugm-3
04-01-2005,05:00,13,R,ugm-3 (GRAV EQ),0,R,ugm-3
04-01-2005,06:00,10,R,ugm-3 (GRAV EQ),0,R,ugm-3
04-01-2005,07:00,12,R,ugm-3 (GRAV EQ),0,R,ugm-3
04-01-2005,08:00,21,R,ugm-3 (GRAV EQ),5,R,ugm-3
04-01-2005,09:00,16,R,ugm-3 (GRAV EQ),0,R,ugm-3
04-01-2005,10:00,14,R,ugm-3 (GRAV EQ),5,R,ugm-3
04-01-2005,11:00,13,R,ugm-3 (GRAV EQ),3,R,ugm-3
04-01-2005,12:00,25,R,ugm-3 (GRAV EQ),3,R,ugm-3
04-01-2005,13:00,5,R,ugm-3 (GRAV EQ),3,R,ugm-3
04-01-2005,14:00,8,R,ugm-3 (GRAV EQ),3,R,ugm-3
04-01-2005,15:00,14,R,ugm-3 (GRAV EQ),3,R,ugm-3
04-01-2005,16:00,18,R,ugm-3 (GRAV EQ),0,R,ugm-3
04-01-2005,17:00,22,R,ugm-3 (GRAV EQ),3,R,ugm-3
04-01-2005,18:00,21,R,ugm-3 (GRAV EQ),5,R,ugm-3
04-01-2005,19:00,20,R,ugm-3 (GRAV EQ),5,R,ugm-3
04-01-2005,20:00,23,R,ugm-3 (GRAV EQ),5,R,ugm-3
04-01-2005,21:00,22,R,ugm-3 (GRAV EQ),5,R,ugm-3
04-01-2005,22:00,25,R,ugm-3 (GRAV EQ),5,R,ugm-3
04-01-2005,23:00,16,R,ugm-3 (GRAV EQ),5,R,ugm-3
04-01-2005,24:00,18,R,ugm-3 (GRAV EQ),5,R,ugm-3
05-01-2005,01:00,16,R,ugm-3 (GRAV EQ),8,R,ugm-3
05-01-2005,02:00,20,R,ugm-3 (GRAV EQ),8,R,ugm-3
05-01-2005,03:00,18,R,ugm-3 (GRAV EQ),8,R,ugm-3
05-01-2005,04:00,17,R,ugm-3 (GRAV EQ),8,R,ugm-3
05-01-2005,05:00,22,R,ugm-3 (GRAV EQ),8,R,ugm-3
05-01-2005,06:00,18,R,ugm-3 (GRAV EQ),5,R,ugm-3
05-01-2005,07:00,18,R,ugm-3 (GRAV EQ),5,R,ugm-3
05-01-2005,08:00,26,R,ugm-3 (GRAV EQ),11,R,ugm-3
05-01-2005,09:00,21,R,ugm-3 (GRAV EQ),13,R,ugm-3
05-01-2005,10:00,20,R,ugm-3 (GRAV EQ),8,R,ugm-3
05-01-2005,11:00,14,R,ugm-3 (GRAV EQ),8,R,ugm-3
05-01-2005,12:00,17,R,ugm-3 (GRAV EQ),8,R,ugm-3
05-01-2005,13:00,17,R,ugm-3 (GRAV EQ),8,R,ugm-3
05-01-2005,14:00,14,R,ugm-3 (GRAV EQ),8,R,ugm-3
05-01-2005,15:00,13,R,ugm-3 (GRAV EQ),5,R,ugm-3
05-01-2005,16:00,17,R,ugm-3 (GRAV EQ),5,R,ugm-3
05-01-2005,17:00,18,R,ugm-3 (GRAV EQ),8,R,ugm-3
05-01-2005,18:00,17,R,ugm-3 (GRAV EQ),5,R,ugm-3
05-01-2005,19:00,17,R,ugm-3 (GRAV EQ),8,R,ugm-3
05-01-2005,20:00,16,R,ugm-3 (GRAV EQ),8,R,ugm-3
05-01-2005,21:00,23,R,ugm-3 (GRAV EQ),8,R,ugm-3
05-01-2005,22:00,25,R,ugm-3 (GRAV EQ),8,R,ugm-3
05-01-2005,23:00,21,R,ugm-3 (GRAV EQ),8,R,ugm-3
05-01-2005,24:00,16,R,ugm-3 (GRAV EQ),8,R,ugm-3
06-01-2005,01:00,16,R,ugm-3 (GRAV EQ),8,R,ugm-3
06-01-2005,02:00,18,R,ugm-3 (GRAV EQ),11,R,ugm-3
06-01-2005,03:00,20,R,ugm-3 (GRAV EQ),11,R,ugm-3
06-01-2005,04:00,21,R,ugm-3 (GRAV EQ),8,R,ugm-3
06-01-2005,05:00,22,R,ugm-3 (GRAV EQ),8,R,ugm-3
06-01-2005,06:00,20,R,ugm-3 (GRAV EQ),11,R,ugm-3
06-01-2005,07:00,14,R,ugm-3 (GRAV EQ),11,R,ugm-3
06-01-2005,08:00,18,R,ugm-3 (GRAV EQ),5,R,ugm-3
06-01-2005,09:00,26,R,ugm-3 (GRAV EQ),5,R,ugm-3
06-01-2005,10:00,22,R,ugm-3 (GRAV EQ),11,R,ugm-3
06-01-2005,11:00,26,R,ugm-3 (GRAV EQ),11,R,ugm-3
06-01-2005,12:00,27,R,ugm-3 (GRAV EQ),13,R,ugm-3
06-01-2005,13:00,23,R,ugm-3 (GRAV EQ),11,R,ugm-3
06-01-2005,14:00,25,R,ugm-3 (GRAV EQ),11,R,ugm-3
06-01-2005,15:00,25,R,ugm-3 (GRAV EQ),11,R,ugm-3
06-01-2005,16:00,,,,,,
06-01-2005,17:00,53,R,ugm-3 (GRAV EQ),11,R,ugm-3
06-01-2005,18:00,39,R,ugm-3 (GRAV EQ),11,R,ugm-3
06-01-2005,19:00,26,R,ugm-3 (GRAV EQ),11,R,ugm-3
06-01-2005,20:00,16,R,ugm-3 (GRAV EQ),11,R,ugm-3
06-01-2005,21:00,8,R,ugm-3 (GRAV EQ),11,R,ugm-3
06-01-2005,22:00,4,R,ugm-3 (GRAV EQ),11,R,ugm-3
06-01-2005,23:00,1,R,ugm-3 (GRAV EQ),11,R,ugm-3
06-01-2005,24:00,0,R,ugm-3 (GRAV EQ),11,R,ugm-3
07-01-2005,01:00,-1,R,ugm-3 (GRAV EQ),5,R,ugm-3
07-01-2005,02:00,0,R,ugm-3 (GRAV EQ),5,R,ugm-3
07-01-2005,03:00,-1,R,ugm-3 (GRAV EQ),8,R,ugm-3
07-01-2005,04:00,3,R,ugm-3 (GRAV EQ),5,R,ugm-3
07-01-2005,05:00,0,R,ugm-3 (GRAV EQ),8,R,ugm-3
07-01-2005,06:00,0,R,ugm-3 (GRAV EQ),5,R,ugm-3
07-01-2005,07:00,3,R,ugm-3 (GRAV EQ),8,R,ugm-3
07-01-2005,08:00,9,R,ugm-3 (GRAV EQ),8,R,ugm-3
07-01-2005,09:00,9,R,ugm-3 (GRAV EQ),5,R,ugm-3
07-01-2005,10:00,8,R,ugm-3 (GRAV EQ),8,R,ugm-3
07-01-2005,11:00,8,R,ugm-3 (GRAV EQ),8,R,ugm-3
07-01-2005,12:00,4,R,ugm-3 (GRAV EQ),8,R,ugm-3
07-01-2005,13:00,4,R,ugm-3 (GRAV EQ),8,R,ugm-3
07-01-2005,14:00,3,R,ugm-3 (GRAV EQ),5,R,ugm-3
07-01-2005,15:00,5,R,ugm-3 (GRAV EQ),8,R,ugm-3
07-01-2005,16:00,12,R,ugm-3 (GRAV EQ),8,R,ugm-3
07-01-2005,17:00,9,R,ugm-3 (GRAV EQ),8,R,ugm-3
07-01-2005,18:00,9,R,ugm-3 (GRAV EQ),8,R,ugm-3
07-01-2005,19:00,9,R,ugm-3 (GRAV EQ),5,R,ugm-3
07-01-2005,20:00,12,R,ugm-3 (GRAV EQ),5,R,ugm-3
07-01-2005,21:00,8,R,ugm-3 (GRAV EQ),21,R,ugm-3
07-01-2005,22:00,8,R,ugm-3 (GRAV EQ),56,R,ugm-3
07-01-2005,23:00,5,R,ugm-3 (GRAV EQ),48,R,ugm-3
07-01-2005,24:00,5,R,ugm-3 (GRAV EQ),35,R,ugm-3
08-01-2005,01:00,10,R,ugm-3 (GRAV EQ),19,R,ugm-3
08-01-2005,02:00,13,R,ugm-3 (GRAV EQ),11,R,ugm-3
08-01-2005,03:00,10,R,ugm-3 (GRAV EQ),13,R,ugm-3
08-01-2005,04:00,1,R,ugm-3 (GRAV EQ),11,R,ugm-3
08-01-2005,05:00,10,R,ugm-3 (GRAV EQ),8,R,ugm-3
08-01-2005,06:00,,,,5,R,ugm-3
08-01-2005,07:00,10,R,ugm-3 (GRAV EQ),5,R,ugm-3
08-01-2005,08:00,21,R,ugm-3 (GRAV EQ),5,R,ugm-3
08-01-2005,09:00,14,R,ugm-3 (GRAV EQ),5,R,ugm-3
08-01-2005,10:00,31,R,ugm-3 (GRAV EQ),5,R,ugm-3
08-01-2005,11:00,27,R,ugm-3 (GRAV EQ),5,R,ugm-3
08-01-2005,12:00,21,R,ugm-3 (GRAV EQ),5,R,ugm-3
08-01-2005,13:00,21,R,ugm-3 (GRAV EQ),5,R,ugm-3
08-01-2005,14:00,18,R,ugm-3 (GRAV EQ),3,R,ugm-3
08-01-2005,15:00,21,R,ugm-3 (GRAV EQ),5,R,ugm-3
08-01-2005,16:00,22,R,ugm-3 (GRAV EQ),3,R,ugm-3
08-01-2005,17:00,21,R,ugm-3 (GRAV EQ),5,R,ugm-3
08-01-2005,18:00,12,R,ugm-3 (GRAV EQ),5,R,ugm-3
08-01-2005,19:00,13,R,ugm-3 (GRAV EQ),5,R,ugm-3
08-01-2005,20:00,13,R,ugm-3 (GRAV EQ),3,R,ugm-3
08-01-2005,21:00,13,R,ugm-3 (GRAV EQ),5,R,ugm-3
08-01-2005,22:00,14,R,ugm-3 (GRAV EQ),5,R,ugm-3
08-01-2005,23:00,12,R,ugm-3 (GRAV EQ),5,R,ugm-3
08-01-2005,24:00,14,R,ugm-3 (GRAV EQ),3,R,ugm-3
09-01-2005,01:00,18,R,ugm-3 (GRAV EQ),3,R,ugm-3
09-01-2005,02:00,18,R,ugm-3 (GRAV EQ),3,R,ugm-3
09-01-2005,03:00,20,R,ugm-3 (GRAV EQ),3,R,ugm-3
09-01-2005,04:00,20,R,ugm-3 (GRAV EQ),3,R,ugm-3
09-01-2005,05:00,17,R,ugm-3 (GRAV EQ),3,R,ugm-3
09-01-2005,06:00,17,R,ugm-3 (GRAV EQ),3,R,ugm-3
09-01-2005,07:00,16,R,ugm-3 (GRAV EQ),3,R,ugm-3
09-01-2005,08:00,13,R,ugm-3 (GRAV EQ),3,R,ugm-3
09-01-2005,09:00,14,R,ugm-3 (GRAV EQ),3,R,ugm-3
09-01-2005,10:00,17,R,ugm-3 (GRAV EQ),3,R,ugm-3
09-01-2005,11:00,18,R,ugm-3 (GRAV EQ),3,R,ugm-3
09-01-2005,12:00,18,R,ugm-3 (GRAV EQ),3,R,ugm-3
09-01-2005,13:00,21,R,ugm-3 (GRAV EQ),11,R,ugm-3
09-01-2005,14:00,20,R,ugm-3 (GRAV EQ),16,R,ugm-3
09-01-2005,15:00,22,R,ugm-3 (GRAV EQ),11,R,ugm-3
09-01-2005,16:00,22,R,ugm-3 (GRAV EQ),16,R,ugm-3
09-01-2005,17:00,18,R,ugm-3 (GRAV EQ),3,R,ugm-3
09-01-2005,18:00,21,R,ugm-3 (GRAV EQ),19,R,ugm-3
09-01-2005,19:00,17,R,ugm-3 (GRAV EQ),29,R,ugm-3
09-01-2005,20:00,16,R,ugm-3 (GRAV EQ),13,R,ugm-3
09-01-2005,21:00,16,R,ugm-3 (GRAV EQ),5,R,ugm-3
09-01-2005,22:00,14,R,ugm-3 (GRAV EQ),3,R,ugm-3
09-01-2005,23:00,20,R,ugm-3 (GRAV EQ),3,R,ugm-3
09-01-2005,24:00,18,R,ugm-3 (GRAV EQ),5,R,ugm-3
10-01-2005,01:00,21,R,ugm-3 (GRAV EQ),8,R,ugm-3
10-01-2005,02:00,12,R,ugm-3 (GRAV EQ),5,R,ugm-3
10-01-2005,03:00,9,R,ugm-3 (GRAV EQ),5,R,ugm-3
10-01-2005,04:00,13,R,ugm-3 (GRAV EQ),5,R,ugm-3
10-01-2005,05:00,14,R,ugm-3 (GRAV EQ),5,R,ugm-3
10-01-2005,06:00,17,R,ugm-3 (GRAV EQ),5,R,ugm-3
10-01-2005,07:00,14,R,ugm-3 (GRAV EQ),3,R,ugm-3
10-01-2005,08:00,12,R,ugm-3 (GRAV EQ),5,R,ugm-3
10-01-2005,09:00,21,R,ugm-3 (GRAV EQ),5,R,ugm-3
10-01-2005,10:00,26,R,ugm-3 (GRAV EQ),5,R,ugm-3
10-01-2005,11:00,25,R,ugm-3 (GRAV EQ),3,R,ugm-3
10-01-2005,12:00,27,R,ugm-3 (GRAV EQ),5,R,ugm-3
10-01-2005,13:00,29,R,ugm-3 (GRAV EQ),5,R,ugm-3
10-01-2005,14:00,33,R,ugm-3 (GRAV EQ),5,R,ugm-3
10-01-2005,15:00,31,R,ugm-3 (GRAV EQ),5,R,ugm-3
10-01-2005,16:00,33,R,ugm-3 (GRAV EQ),5,R,ugm-3
10-01-2005,17:00,22,R,ugm-3 (GRAV EQ),5,R,ugm-3
10-01-2005,18:00,23,R,ugm-3 (GRAV EQ),5,R,ugm-3
10-01-2005,19:00,22,R,ugm-3 (GRAV EQ),5,R,ugm-3
10-01-2005,20:00,23,R,ugm-3 (GRAV EQ),5,R,ugm-3
10-01-2005,21:00,29,R,ugm-3 (GRAV EQ),8,R,ugm-3
10-01-2005,22:00,26,R,ugm-3 (GRAV EQ),5,R,ugm-3
10-01-2005,23:00,20,R,ugm-3 (GRAV EQ),5,R,ugm-3
10-01-2005,24:00,18,R,ugm-3 (GRAV EQ),5,R,ugm-3
11-01-2005,01:00,17,R,ugm-3 (GRAV EQ),5,R,ugm-3
11-01-2005,02:00,18,R,ugm-3 (GRAV EQ),3,R,ugm-3
11-01-2005,03:00,16,R,ugm-3 (GRAV EQ),3,R,ugm-3
11-01-2005,04:00,17,R,ugm-3 (GRAV EQ),3,R,ugm-3
11-01-2005,05:00,14,R,ugm-3 (GRAV EQ),3,R,ugm-3
11-01-2005,06:00,17,R,ugm-3 (GRAV EQ),3,R,ugm-3
11-01-2005,07:00,17,R,ugm-3 (GRAV EQ),3,R,ugm-3
11-01-2005,08:00,18,R,ugm-3 (GRAV EQ),3,R,ugm-3
11-01-2005,09:00,17,R,ugm-3 (GRAV EQ),3,R,ugm-3
11-01-2005,10:00,21,R,ugm-3 (GRAV EQ),8,R,ugm-3
11-01-2005,11:00,22,R,ugm-3 (GRAV EQ),3,R,ugm-3
11-01-2005,12:00,22,R,ugm-3 (GRAV EQ),3,R,ugm-3
11-01-2005,13:00,18,R,ugm-3 (GRAV EQ),3,R,ugm-3
11-01-2005,14:00,23,R,ugm-3 (GRAV EQ),3,R,ugm-3
11-01-2005,15:00,23,R,ugm-3 (GRAV EQ),3,R,ugm-3
11-01-2005,16:00,18,R,ugm-3 (GRAV EQ),3,R,ugm-3
11-01-2005,17:00,16,R,ugm-3 (GRAV EQ),11,R,ugm-3
11-01-2005,18:00,25,R,ugm-3 (GRAV EQ),3,R,ugm-3
11-01-2005,19:00,13,R,ugm-3 (GRAV EQ),3,R,ugm-3
11-01-2005,20:00,14,R,ugm-3 (GRAV EQ),3,R,ugm-3
11-01-2005,21:00,20,R,ugm-3 (GRAV EQ),3,R,ugm-3
11-01-2005,22:00,29,R,ugm-3 (GRAV EQ),3,R,ugm-3
11-01-2005,23:00,25,R,ugm-3 (GRAV EQ),3,R,ugm-3
11-01-2005,24:00,22,R,ugm-3 (GRAV EQ),3,R,ugm-3
12-01-2005,01:00,21,R,ugm-3 (GRAV EQ),5,R,ugm-3
12-01-2005,02:00,10,R,ugm-3 (GRAV EQ),5,R,ugm-3
12-01-2005,03:00,9,R,ugm-3 (GRAV EQ),5,R,ugm-3
12-01-2005,04:00,7,R,ugm-3 (GRAV EQ),5,R,ugm-3
12-01-2005,05:00,5,R,ugm-3 (GRAV EQ),5,R,ugm-3
12-01-2005,06:00,13,R,ugm-3 (GRAV EQ),5,R,ugm-3
12-01-2005,07:00,12,R,ugm-3 (GRAV EQ),5,R,ugm-3
12-01-2005,08:00,13,R,ugm-3 (GRAV EQ),5,R,ugm-3
12-01-2005,09:00,16,R,ugm-3 (GRAV EQ),5,R,ugm-3
12-01-2005,10:00,22,R,ugm-3 (GRAV EQ),5,R,ugm-3
12-01-2005,11:00,20,R,ugm-3 (GRAV EQ),5,R,ugm-3
12-01-2005,12:00,23,R,ugm-3 (GRAV EQ),5,R,ugm-3
12-01-2005,13:00,26,R,ugm-3 (GRAV EQ),5,R,ugm-3
12-01-2005,14:00,25,R,ugm-3 (GRAV EQ),5,R,ugm-3
12-01-2005,15:00,22,R,ugm-3 (GRAV EQ),5,R,ugm-3
12-01-2005,16:00,27,R,ugm-3 (GRAV EQ),5,R,ugm-3
12-01-2005,17:00,30,R,ugm-3 (GRAV EQ),5,R,ugm-3
12-01-2005,18:00,23,R,ugm-3 (GRAV EQ),5,R,ugm-3
12-01-2005,19:00,14,R,ugm-3 (GRAV EQ),5,R,ugm-3
12-01-2005,20:00,18,R,ugm-3 (GRAV EQ),5,R,ugm-3
12-01-2005,21:00,10,R,ugm-3 (GRAV EQ),5,R,ugm-3
12-01-2005,22:00,14,R,ugm-3 (GRAV EQ),3,R,ugm-3
12-01-2005,23:00,16,R,ugm-3 (GRAV EQ),3,R,ugm-3
12-01-2005,24:00,18,R,ugm-3 (GRAV EQ),5,R,ugm-3
13-01-2005,01:00,18,R,ugm-3 (GRAV EQ),3,R,ugm-3
13-01-2005,02:00,22,R,ugm-3 (GRAV EQ),3,R,ugm-3
13-01-2005,03:00,20,R,ugm-3 (GRAV EQ),3,R,ugm-3
13-01-2005,04:00,20,R,ugm-3 (GRAV EQ),3,R,ugm-3
13-01-2005,05:00,23,R,ugm-3 (GRAV EQ),3,R,ugm-3
13-01-2005,06:00,26,R,ugm-3 (GRAV EQ),3,R,ugm-3
13-01-2005,07:00,27,R,ugm-3 (GRAV EQ),3,R,ugm-3
13-01-2005,08:00,31,R,ugm-3 (GRAV EQ),3,R,ugm-3
13-01-2005,09:00,35,R,ugm-3 (GRAV EQ),5,R,ugm-3
13-01-2005,10:00,36,R,ugm-3 (GRAV EQ),8,R,ugm-3
13-01-2005,11:00,39,R,ugm-3 (GRAV EQ),8,R,ugm-3
13-01-2005,12:00,42,R,ugm-3 (GRAV EQ),8,R,ugm-3
13-01-2005,13:00,46,R,ugm-3 (GRAV EQ),8,R,ugm-3
13-01-2005,14:00,40,R,ugm-3 (GRAV EQ),5,R,ugm-3
13-01-2005,15:00,39,R,ugm-3 (GRAV EQ),8,R,ugm-3
13-01-2005,16:00,40,R,ugm-3 (GRAV EQ),11,R,ugm-3
13-01-2005,17:00,40,R,ugm-3 (GRAV EQ),11,R,ugm-3
13-01-2005,18:00,42,R,ugm-3 (GRAV EQ),11,R,ugm-3
13-01-2005,19:00,46,R,ugm-3 (GRAV EQ),11,R,ugm-3
13-01-2005,20:00,48,R,ugm-3 (GRAV EQ),11,R,ugm-3
13-01-2005,21:00,43,R,ugm-3 (GRAV EQ),11,R,ugm-3
13-01-2005,22:00,38,R,ugm-3 (GRAV EQ),11,R,ugm-3
13-01-2005,23:00,34,R,ugm-3 (GRAV EQ),8,R,ugm-3
13-01-2005,24:00,39,R,ugm-3 (GRAV EQ),8,R,ugm-3
14-01-2005,01:00,42,R,ugm-3 (GRAV EQ),5,R,ugm-3
14-01-2005,02:00,44,R,ugm-3 (GRAV EQ),5,R,ugm-3
14-01-2005,03:00,43,R,ugm-3 (GRAV EQ),5,R,ugm-3
14-01-2005,04:00,34,R,ugm-3 (GRAV EQ),5,R,ugm-3
14-01-2005,05:00,31,R,ugm-3 (GRAV EQ),3,R,ugm-3
14-01-2005,06:00,27,R,ugm-3 (GRAV EQ),3,R,ugm-3
14-01-2005,07:00,29,R,ugm-3 (GRAV EQ),3,R,ugm-3
14-01-2005,08:00,31,R,ugm-3 (GRAV EQ),5,R,ugm-3
14-01-2005,09:00,30,R,ugm-3 (GRAV EQ),8,R,ugm-3
14-01-2005,10:00,36,R,ugm-3 (GRAV EQ),8,R,ugm-3
14-01-2005,11:00,36,R,ugm-3 (GRAV EQ),5,R,ugm-3
14-01-2005,12:00,34,R,ugm-3 (GRAV EQ),5,R,ugm-3
14-01-2005,13:00,33,R,ugm-3 (GRAV EQ),5,R,ugm-3
14-01-2005,14:00,34,R,ugm-3 (GRAV EQ),5,R,ugm-3
14-01-2005,15:00,35,R,ugm-3 (GRAV EQ),5,R,ugm-3
14-01-2005,16:00,33,R,ugm-3 (GRAV EQ),5,R,ugm-3
14-01-2005,17:00,29,R,ugm-3 (GRAV EQ),5,R,ugm-3
14-01-2005,18:00,25,R,ugm-3 (GRAV EQ),3,R,ugm-3
14-01-2005,19:00,22,R,ugm-3 (GRAV EQ),3,R,ugm-3
14-01-2005,20:00,23,R,ugm-3 (GRAV EQ),5,R,ugm-3
14-01-2005,21:00,22,R,ugm-3 (GRAV EQ),5,R,ugm-3
14-01-2005,22:00,18,R,ugm-3 (GRAV EQ),5,R,ugm-3
14-01-2005,23:00,20,R,ugm-3 (GRAV EQ),5,R,ugm-3
14-01-2005,24:00,21,R,ugm-3 (GRAV EQ),5,R,ugm-3
15-01-2005,01:00,22,R,ugm-3 (GRAV EQ),5,R,ugm-3
15-01-2005,02:00,25,R,ugm-3 (GRAV EQ),5,R,ugm-3
15-01-2005,03:00,27,R,ugm-3 (GRAV EQ),5,R,ugm-3
15-01-2005,04:00,25,R,ugm-3 (GRAV EQ),5,R,ugm-3
15-01-2005,05:00,27,R,ugm-3 (GRAV EQ),5,R,ugm-3
15-01-2005,06:00,30,R,ugm-3 (GRAV EQ),5,R,ugm-3
15-01-2005,07:00,31,R,ugm-3 (GRAV EQ),5,R,ugm-3
15-01-2005,08:00,30,R,ugm-3 (GRAV EQ),5,R,ugm-3
15-01-2005,09:00,34,R,ugm-3 (GRAV EQ),5,R,ugm-3
15-01-2005,10:00,33,R,ugm-3 (GRAV EQ),5,R,ugm-3
15-01-2005,11:00,33,R,ugm-3 (GRAV EQ),5,R,ugm-3
15-01-2005,12:00,30,R,ugm-3 (GRAV EQ),5,R,ugm-3
15-01-2005,13:00,26,R,ugm-3 (GRAV EQ),5,R,ugm-3
15-01-2005,14:00,25,R,ugm-3 (GRAV EQ),3,R,ugm-3
15-01-2005,15:00,29,R,ugm-3 (GRAV EQ),3,R,ugm-3
15-01-2005,16:00,29,R,ugm-3 (GRAV EQ),3,R,ugm-3
15-01-2005,17:00,23,R,ugm-3 (GRAV EQ),3,R,ugm-3
15-01-2005,18:00,22,R,ugm-3 (GRAV EQ),3,R,ugm-3
15-01-2005,19:00,27,R,ugm-3 (GRAV EQ),0,R,ugm-3
15-01-2005,20:00,26,R,ugm-3 (GRAV EQ),0,R,ugm-3
15-01-2005,21:00,22,R,ugm-3 (GRAV EQ),3,R,ugm-3
15-01-2005,22:00,21,R,ugm-3 (GRAV EQ),5,R,ugm-3
15-01-2005,23:00,20,R,ugm-3 (GRAV EQ),5,R,ugm-3
15-01-2005,24:00,13,R,ugm-3 (GRAV EQ),5,R,ugm-3
16-01-2005,01:00,13,R,ugm-3 (GRAV EQ),5,R,ugm-3
16-01-2005,02:00,16,R,ugm-3 (GRAV EQ),5,R,ugm-3
16-01-2005,03:00,18,R,ugm-3 (GRAV EQ),5,R,ugm-3
16-01-2005,04:00,20,R,ugm-3 (GRAV EQ),5,R,ugm-3
16-01-2005,05:00,23,R,ugm-3 (GRAV EQ),5,R,ugm-3
16-01-2005,06:00,22,R,ugm-3 (GRAV EQ),5,R,ugm-3
16-01-2005,07:00,23,R,ugm-3 (GRAV EQ),3,R,ugm-3
16-01-2005,08:00,31,R,ugm-3 (GRAV EQ),5,R,ugm-3
16-01-2005,09:00,30,R,ugm-3 (GRAV EQ),5,R,ugm-3
16-01-2005,10:00,29,R,ugm-3 (GRAV EQ),3,R,ugm-3
16-01-2005,11:00,30,R,ugm-3 (GRAV EQ),3,R,ugm-3
16-01-2005,12:00,33,R,ugm-3 (GRAV EQ),8,R,ugm-3
16-01-2005,13:00,33,R,ugm-3 (GRAV EQ),13,R,ugm-3
16-01-2005,14:00,31,R,ugm-3 (GRAV EQ),19,R,ugm-3
16-01-2005,15:00,23,R,ugm-3 (GRAV EQ),11,R,ugm-3
16-01-2005,16:00,18,R,ugm-3 (GRAV EQ),8,R,ugm-3
16-01-2005,17:00,10,R,ugm-3 (GRAV EQ),5,R,ugm-3
16-01-2005,18:00,8,R,ugm-3 (GRAV EQ),5,R,ugm-3
16-01-2005,19:00,0,R,ugm-3 (GRAV EQ),3,R,ugm-3
16-01-2005,20:00,0,R,ugm-3 (GRAV EQ),3,R,ugm-3
16-01-2005,21:00,5,R,ugm-3 (GRAV EQ),0,R,ugm-3
16-01-2005,22:00,5,R,ugm-3 (GRAV EQ),3,R,ugm-3
16-01-2005,23:00,9,R,ugm-3 (GRAV EQ),5,R,ugm-3
16-01-2005,24:00,12,R,ugm-3 (GRAV EQ),8,R,ugm-3
17-01-2005,01:00,10,R,ugm-3 (GRAV EQ),5,R,ugm-3
17-01-2005,02:00,10,R,ugm-3 (GRAV EQ),5,R,ugm-3
17-01-2005,03:00,13,R,ugm-3 (GRAV EQ),3,R,ugm-3
17-01-2005,04:00,10,R,ugm-3 (GRAV EQ),5,R,ugm-3
17-01-2005,05:00,10,R,ugm-3 (GRAV EQ),3,R,ugm-3
17-01-2005,06:00,13,R,ugm-3 (GRAV EQ),5,R,ugm-3
17-01-2005,07:00,9,R,ugm-3 (GRAV EQ),5,R,ugm-3
17-01-2005,08:00,10,R,ugm-3 (GRAV EQ),8,R,ugm-3
17-01-2005,09:00,9,R,ugm-3 (GRAV EQ),3,R,ugm-3
17-01-2005,10:00,8,R,ugm-3 (GRAV EQ),5,R,ugm-3
17-01-2005,11:00,8,R,ugm-3 (GRAV EQ),3,R,ugm-3
17-01-2005,12:00,13,R,ugm-3 (GRAV EQ),3,R,ugm-3
17-01-2005,13:00,10,R,ugm-3 (GRAV EQ),5,R,ugm-3
17-01-2005,14:00,5,R,ugm-3 (GRAV EQ),3,R,ugm-3
17-01-2005,15:00,1,R,ugm-3 (GRAV EQ),3,R,ugm-3
17-01-2005,16:00,0,R,ugm-3 (GRAV EQ),3,R,ugm-3
17-01-2005,17:00,1,R,ugm-3 (GRAV EQ),3,R,ugm-3
17-01-2005,18:00,3,R,ugm-3 (GRAV EQ),5,R,ugm-3
17-01-2005,19:00,3,R,ugm-3 (GRAV EQ),3,R,ugm-3
17-01-2005,20:00,1,R,ugm-3 (GRAV EQ),3,R,ugm-3
17-01-2005,21:00,-1,R,ugm-3 (GRAV EQ),0,R,ugm-3
17-01-2005,22:00,,,,3,R,ugm-3
17-01-2005,23:00,-3,R,ugm-3 (GRAV EQ),3,R,ugm-3
17-01-2005,24:00,-3,R,ugm-3 (GRAV EQ),3,R,ugm-3
18-01-2005,01:00,-4,R,ugm-3 (GRAV EQ),5,R,ugm-3
18-01-2005,02:00,-3,R,ugm-3 (GRAV EQ),8,R,ugm-3
18-01-2005,03:00,-3,R,ugm-3 (GRAV EQ),8,R,ugm-3
18-01-2005,04:00,-1,R,ugm-3 (GRAV EQ),8,R,ugm-3
18-01-2005,05:00,3,R,ugm-3 (GRAV EQ),8,R,ugm-3
18-01-2005,06:00,8,R,ugm-3 (GRAV EQ),8,R,ugm-3
18-01-2005,07:00,4,R,ugm-3 (GRAV EQ),8,R,ugm-3
18-01-2005,08:00,9,R,ugm-3 (GRAV EQ),8,R,ugm-3
18-01-2005,09:00,9,R,ugm-3 (GRAV EQ),8,R,ugm-3
18-01-2005,10:00,9,R,ugm-3 (GRAV EQ),8,R,ugm-3
18-01-2005,11:00,10,R,ugm-3 (GRAV EQ),8,R,ugm-3
18-01-2005,12:00,20,R,ugm-3 (GRAV EQ),,,
18-01-2005,13:00,12,R,ugm-3 (GRAV EQ),0,R,ugm-3
18-01-2005,14:00,13,R,ugm-3 (GRAV EQ),0,R,ugm-3
18-01-2005,15:00,14,R,ugm-3 (GRAV EQ),0,R,ugm-3
18-01-2005,16:00,21,R,ugm-3 (GRAV EQ),0,R,ugm-3
18-01-2005,17:00,18,R,ugm-3 (GRAV EQ),0,R,ugm-3
18-01-2005,18:00,33,R,ugm-3 (GRAV EQ),3,R,ugm-3
18-01-2005,19:00,29,R,ugm-3 (GRAV EQ),3,R,ugm-3
18-01-2005,20:00,36,R,ugm-3 (GRAV EQ),5,R,ugm-3
18-01-2005,21:00,33,R,ugm-3 (GRAV EQ),5,R,ugm-3
18-01-2005,22:00,34,R,ugm-3 (GRAV EQ),0,R,ugm-3
18-01-2005,23:00,39,R,ugm-3 (GRAV EQ),3,R,ugm-3
18-01-2005,24:00,25,R,ugm-3 (GRAV EQ),0,R,ugm-3
19-01-2005,01:00,14,R,ugm-3 (GRAV EQ),0,R,ugm-3
19-01-2005,02:00,14,R,ugm-3 (GRAV EQ),0,R,ugm-3
19-01-2005,03:00,13,R,ugm-3 (GRAV EQ),0,R,ugm-3
19-01-2005,04:00,17,R,ugm-3 (GRAV EQ),0,R,ugm-3
19-01-2005,05:00,18,R,ugm-3 (GRAV EQ),0,R,ugm-3
19-01-2005,06:00,17,R,ugm-3 (GRAV EQ),0,R,ugm-3
19-01-2005,07:00,13,R,ugm-3 (GRAV EQ),0,R,ugm-3
19-01-2005,08:00,14,R,ugm-3 (GRAV EQ),0,R,ugm-3
19-01-2005,09:00,20,R,ugm-3 (GRAV EQ),0,R,ugm-3
19-01-2005,10:00,30,R,ugm-3 (GRAV EQ),0,R,ugm-3
19-01-2005,11:00,30,R,ugm-3 (GRAV EQ),0,R,ugm-3
19-01-2005,12:00,29,R,ugm-3 (GRAV EQ),0,R,ugm-3
19-01-2005,13:00,23,R,ugm-3 (GRAV EQ),0,R,ugm-3
19-01-2005,14:00,18,R,ugm-3 (GRAV EQ),0,R,ugm-3
19-01-2005,15:00,23,R,ugm-3 (GRAV EQ),0,R,ugm-3
19-01-2005,16:00,26,R,ugm-3 (GRAV EQ),0,R,ugm-3
19-01-2005,17:00,21,R,ugm-3 (GRAV EQ),0,R,ugm-3
19-01-2005,18:00,17,R,ugm-3 (GRAV EQ),0,R,ugm-3
19-01-2005,19:00,13,R,ugm-3 (GRAV EQ),0,R,ugm-3
19-01-2005,20:00,20,R,ugm-3 (GRAV EQ),0,R,ugm-3
19-01-2005,21:00,14,R,ugm-3 (GRAV EQ),0,R,ugm-3
19-01-2005,22:00,13,R,ugm-3 (GRAV EQ),0,R,ugm-3
19-01-2005,23:00,18,R,ugm-3 (GRAV EQ),0,R,ugm-3
19-01-2005,24:00,26,R,ugm-3 (GRAV EQ),0,R,ugm-3
20-01-2005,01:00,30,R,ugm-3 (GRAV EQ),0,R,ugm-3
20-01-2005,02:00,31,R,ugm-3 (GRAV EQ),0,R,ugm-3
20-01-2005,03:00,29,R,ugm-3 (GRAV EQ),0,R,ugm-3
20-01-2005,04:00,27,R,ugm-3 (GRAV EQ),0,R,ugm-3
20-01-2005,05:00,18,R,ugm-3 (GRAV EQ),0,R,ugm-3
20-01-2005,06:00,20,R,ugm-3 (GRAV EQ),5,R,ugm-3
20-01-2005,07:00,20,R,ugm-3 (GRAV EQ),5,R,ugm-3
20-01-2005,08:00,12,R,ugm-3 (GRAV EQ),3,R,ugm-3
20-01-2005,09:00,14,R,ugm-3 (GRAV EQ),0,R,ugm-3
20-01-2005,10:00,22,R,ugm-3 (GRAV EQ),3,R,ugm-3
20-01-2005,11:00,16,R,ugm-3 (GRAV EQ),8,R,ugm-3
20-01-2005,12:00,9,R,ugm-3 (GRAV EQ),8,R,ugm-3
20-01-2005,13:00,9,R,ugm-3 (GRAV EQ),21,R,ugm-3
20-01-2005,14:00,10,R,ugm-3 (GRAV EQ),21,R,ugm-3
20-01-2005,15:00,9,R,ugm-3 (GRAV EQ),29,R,ugm-3
20-01-2005,16:00,8,R,ugm-3 (GRAV EQ),29,R,ugm-3
20-01-2005,17:00,4,R,ugm-3 (GRAV EQ),13,R,ugm-3
20-01-2005,18:00,0,R,ugm-3 (GRAV EQ),27,R,ugm-3
20-01-2005,19:00,7,R,ugm-3 (GRAV EQ),11,R,ugm-3
20-01-2005,20:00,7,R,ugm-3 (GRAV EQ),35,R,ugm-3
20-01-2005,21:00,12,R,ugm-3 (GRAV EQ),32,R,ugm-3
20-01-2005,22:00,25,R,ugm-3 (GRAV EQ),13,R,ugm-3
20-01-2005,23:00,9,R,ugm-3 (GRAV EQ),27,R,ugm-3
20-01-2005,24:00,7,R,ugm-3 (GRAV EQ),29,R,ugm-3
21-01-2005,01:00,17,R,ugm-3 (GRAV EQ),29,R,ugm-3
21-01-2005,02:00,14,R,ugm-3 (GRAV EQ),29,R,ugm-3
21-01-2005,03:00,21,R,ugm-3 (GRAV EQ),32,R,ugm-3
21-01-2005,04:00,25,R,ugm-3 (GRAV EQ),32,R,ugm-3
21-01-2005,05:00,22,R,ugm-3 (GRAV EQ),29,R,ugm-3
21-01-2005,06:00,21,R,ugm-3 (GRAV EQ),21,R,ugm-3
21-01-2005,07:00,18,R,ugm-3 (GRAV EQ),21,R,ugm-3
21-01-2005,08:00,22,R,ugm-3 (GRAV EQ),27,R,ugm-3
21-01-2005,09:00,26,R,ugm-3 (GRAV EQ),19,R,ugm-3
21-01-2005,10:00,31,R,ugm-3 (GRAV EQ),27,R,ugm-3
21-01-2005,11:00,31,R,ugm-3 (GRAV EQ),16,R,ugm-3
21-01-2005,12:00,34,R,ugm-3 (GRAV EQ),37,R,ugm-3
21-01-2005,13:00,30,R,ugm-3 (GRAV EQ),43,R,ugm-3
21-01-2005,14:00,22,R,ugm-3 (GRAV EQ),8,R,ugm-3
21-01-2005,15:00,18,R,ugm-3 (GRAV EQ),5,R,ugm-3
21-01-2005,16:00,25,R,ugm-3 (GRAV EQ),8,R,ugm-3